Regional Weather Roundup
Issued by NWS Charleston, SC

Current Version | Previous Version | Graphics & Text | Print | Product List | Glossary On
Versions: 1 2 3 4 5 6 7 8 9 10 11 12 13 14 15 16 17 18 19 20 21 22 23 24 25 26 27 28 29 30 31 32 33 34 35 36 37 38 39 40 41 42 43 44 45 46 47 48 49 50
000
ASUS42 KCHS 300613
RWRCHS

REGIONAL WEATHER ROUNDUP
NATIONAL WEATHER SERVICE CHARLESTON SC
200 AM EDT SAT JUL 30 2016

NOTE: "FAIR" INDICATES FEW OR NO CLOUDS BELOW 12,000 FEET WITH NO
SIGNIFICANT WEATHER AND/OR OBSTRUCTIONS TO VISIBILITY.

NOT ALL STATIONS ARE QUALITY CONTROLLED. USE DATA WITH CAUTION...
ESPECIALLY DEWPOINT OBSERVATIONS.

SCZ027-030-031-034>040-042>050-300700-
...SOUTHEAST SOUTH CAROLINA...

CITY           SKY/WX    TMP DP  RH WIND       PRES   REMARKS
N CHARLESTON   CLEAR     83  78  85 SW8       29.95F HX  93
6HR MIN TEMP:  83; 6HR MAX TEMP:  89;

WATERFRONT PRK   N/A     86  81  85 SW7       29.93F HX 102
MOUNT PLEASANT FAIR      84  81  89 S8        29.95F HX  98
JOHNS ISLAND   FAIR      86  81  84 SW9       29.95F HX 102
PINOPOLIS        N/A     82  79  89 SW5       29.89R HX  93
MONCKS CORNER  FAIR      79  75  89 SW5       29.95F
SUMMERVILLE    NOT AVBL
BEAUFORT MCAS  CLEAR     83  77  82 SW7       29.95F HX  92
6HR MIN TEMP:  83; 6HR MAX TEMP:  90;

BEAUFORT ARPT  FAIR      82  77  83 SW5       29.95F HX  91
HILTON HEAD IS CLEAR     84  79  84 SW8       29.97F HX  96
WALTERBORO     CLEAR     82  82 100 SW5       29.96F HX  97
ALLENDALE      FAIR      79  72  78 CALM      29.95F

...SOUTHERN MIDLANDS AND PEE DEE...

CITY           SKY/WX    TMP DP  RH WIND       PRES   REMARKS
GEORGETOWN     FAIR      79  75  89 CALM      29.97S
KINGSTREE      FAIR      75  72  88 CALM      29.95S
ORANGEBURG     CLEAR     80  71  74 CALM      29.96F
6HR MIN TEMP:  80; 6HR MAX TEMP:  92;

BARNWELL       NOT AVBL
AIKEN          FAIR      77  68  73 CALM      30.00F
MANNING        FAIR      77  72  83 CALM      29.95F
COLUMBIA       CLOUDY    81  72  74 S3        29.94F
6HR MIN TEMP:  81; 6HR MAX TEMP:  94;

SUMTER         CLEAR     78  74  86 CALM      29.93F HAZE
6HR MIN TEMP:  77; 6HR MAX TEMP:  80; 6HR PCP:  0.15;

FLORENCE       PTCLDY    77  74  90 CALM      29.95F
6HR MIN TEMP:  77; 6HR MAX TEMP:  81; 6HR PCP:  0.10;

MYRTLE BEACH   MOCLDY    84  72  65 SW7       29.97S
N MYRTLE BEACH MOCLDY    80  76  87 CALM      29.94F
6HR MIN TEMP:  80; 6HR MAX TEMP:  86;


$$

GAZ063-065-086>088-099>101-113>116-118-119-134>141-150-300700-
...SOUTHEAST GEORGIA...

CITY           SKY/WX    TMP DP  RH WIND       PRES   REMARKS
SAVANNAH ARPT  CLEAR     83  73  72 SW7       29.97F
6HR MIN TEMP:  83; 6HR MAX TEMP:  91;

HUNTER AAF     CLEAR     82  78  89 S3        29.95F HX  91
6HR MIN TEMP:  82; 6HR MAX TEMP:  89;

FORT STEWART   CLEAR     81  72  74 CALM      29.95F
STATESBORO     CLEAR     82  71  71 W3        29.97S
SYLVANIA       NOT AVBL
CLAXTON        FAIR      78  72  84 SW5       29.97F

...CSRA...CENTRAL AND FAR SOUTHEAST GEORGIA...

CITY           SKY/WX    TMP DP  RH WIND       PRES   REMARKS
THOMSON        NOT AVBL
AUGUSTA-BUSH   PTCLDY    76  71  85 CALM      29.96F
6HR MIN TEMP:  76; 6HR MAX TEMP:  94;

AUGUSTA-DANIEL CLEAR     84  70  62 CALM      29.98F
SWAINSBORO     FAIR      81  68  65 W3        29.99F
VIDALIA        CLEAR     82  70  65 W6        29.99F
EASTMAN        FAIR      82  64  53 SW3       30.02F
HAZLEHURST     FAIR      83  75  77 CALM      29.99S
ALMA           CLEAR     80  71  74 W5        29.99F
6HR MIN TEMP:  80; 6HR MAX TEMP:  93;

WAYCROSS       CLEAR     81  76  83 W5        30.00F
JESUP          FAIR      79  73  83 CALM      29.99S
BAXLEY         FAIR      82  77  83 W3        29.99S HX  91
BRUNSWICK      CLEAR     82  75  78 SW9       30.00S
SAINT SIMONS   CLEAR     83  75  77 SW9       29.99S HX  90
6HR MIN TEMP:  83; 6HR MAX TEMP:  88;


$$

SCZ027-028-034-036>038-045-046-048>050-GAZ119-141-300700-
...LAKE AND SUPPLEMENTAL COASTAL OBSERVATIONS...

STATION/POSITION TIME  TEMP    WIND        PRES    WAVE   SWELL
                       AIR SEA DIR/SP/G            HT/PER HT/PER/DIR
                 (UTC) (F)     (DEG/KT/KT) (MB)    (FT/S) (FT/S/D)
WINYAH BAY       NOT AVBL
LAKE MURRAY      0500   84     270/  3/  4 1014.2F
ACE BASIN NERRS  NOT AVBL
FORT PULASKI     0500   84 87  210/  5/  7 1015.6R
SAPELO ISLAND    0500   84     200/  8     1015.0F

$$

ANZ835-935-AMZ111-154-330-350-352-354-370-450-454-472-300700-
...C-MAN AND BUOY OBSERVATIONS...

STATION/POSITION TIME  TEMP    WIND        PRES    WAVE   SWELL
                       AIR SEA DIR/SP/G            HT/PER HT/PER/DIR
                 (UTC) (F)     (DEG/KT/KT) (MB)    (FT/S) (FT/S/D)
BUOY 41004       0550   86 86  220/ 17/ 21 1014.0F   3/ 4   2/140/ 8
BUOY 41008       0550   86 87  200/ 16/ 19 1014.8F   4/ 5
FOLLY BEACH CMAN 0600   86     220/ 13/ 17 1014.4F
CAPERS NEARSHORE 0508   85 84  230/ 16/ 21 1014.3F
FRIPP NEARSHORE  0508   88 87  230/ 17/ 23 1013.8F


STATION/POSITION TIME  TEMP    WIND        PRES    WAVE   SWELL
                       AIR SEA DIR/SP/G            HT/PER HT/PER/DIR
                 (UTC) (F)     (DEG/KT/KT) (MB)    (FT/S) (FT/S/D)
5E ST. MARYS GA  0501      85                N/A     3/ 4
FRYING PAN BUOY  0500   85 85  220/ 12/ 14 1014.3F
BUOY 41025       0550   84 85  230/  4/  4 1013.9F   3/ 4   3/220/ 4
CAPE LOOKOUT NC  0500   83     260/  9/ 11 1013.8F
BUOY 41002       0550   84 85  210/  8/ 10 1016.3S   3/ 7   3/210/ 7
BUOY 41010       0520   85 87  250/  6/  8 1017.0F
ST AUGUSTINE FL  0600   79 85  230/  5/  7 1017.6F


$$



USA.gov is the U.S. government's official web portal to all federal, state and local government web resources and services.